This is the latest recevied weather packets stored in our database for station/object KC1DMA. If no packets are shown the sender has not sent any weather packets the latest 10 day(s).
| Time | Temp. | Humidity | Pressure | Rain* | Wind** | Luminosity | Snow |
|---|---|---|---|---|---|---|---|
| 1777732376 | 11.67° C | 78% | 1013.3 hPa | - | - | 373 W/m² | - |
| 1777732074 | 11.67° C | 80% | 1013.5 hPa | - | - | 182 W/m² | - |
| 1777731770 | 11.67° C | 80% | 1013.4 hPa | - | - | 182 W/m² | - |
| 1777731467 | 11.67° C | 80% | 1013.5 hPa | - | - | 182 W/m² | - |
| 1777731165 | 11.67° C | 80% | 1013.6 hPa | - | - | 182 W/m² | - |
| 1777730863 | 11.11° C | 79% | 1013.4 hPa | - | - | 143 W/m² | - |
| 1777730560 | 11.11° C | 79% | 1013.5 hPa | - | - | 143 W/m² | - |
| 1777730256 | 11.11° C | 79% | 1013.5 hPa | - | - | 143 W/m² | - |
| 1777729043 | 11.11° C | 81% | 1013.6 hPa | - | - | 213 W/m² | - |
| 1777728739 | 11.11° C | 81% | 1013.5 hPa | - | - | 150 W/m² | - |
| 1777728436 | 11.11° C | 81% | 1013.7 hPa | - | - | 177 W/m² | - |
| 1777728133 | 10.56° C | 82% | 1013.6 hPa | - | - | 279 W/m² | - |
| 1777727830 | 11.11° C | 82% | 1013.4 hPa | - | - | 158 W/m² | - |
| 1777727528 | 11.11° C | 81% | 1013.5 hPa | - | - | 259 W/m² | - |
| 1777727224 | 10.56° C | 81% | 1013.3 hPa | - | - | 198 W/m² | - |
| 1777726618 | 11.11° C | 80% | 1013.4 hPa | - | - | 200 W/m² | - |
| 1777726316 | 10.56° C | 77% | 1013.3 hPa | - | - | 220 W/m² | - |
| 1777725408 | 10.56° C | 90% | 1013.6 hPa | - | - | 237 W/m² | - |
| 1777725105 | 10° C | 93% | 1013.5 hPa | - | - | 366 W/m² | - |
| 1777724801 | 9.44° C | 94% | 1013.6 hPa | - | - | 237 W/m² | - |
| 1777724498 | 8.89° C | 94% | 1013.5 hPa | - | - | 129 W/m² | - |
| 1777724196 | 8.89° C | 94% | 1013.3 hPa | - | - | 312 W/m² | - |
| 1777723590 | 8.89° C | 93% | 1013.3 hPa | - | - | 112 W/m² | - |
| 1777722680 | 8.89° C | 89% | 1013.6 hPa | - | - | 67 W/m² | - |
| 1777722074 | 8.89° C | 89% | 1014.1 hPa | - | - | 25 W/m² | - |
* Rain since midnight (hover to see other rain measurements)
** Current wind speed in m/s (hover to see current wind gust speed)